Location: Wanzleben
(52.0609°N, 11.4408°E)
Time: 11:45:41
(UTC+00:00)

Cosmos 2263 Rocket - Pass Details

Date: 18 January 2021
Orbit: 825 x 847 km, 71.0° (Epoch: 24 February)

Event Time Altitude Azimuth Distance (km) Brightness Sun altitude
Rises 16:05:45 0° 174° (S) 3,397 5.6 -4.6°
Reaches altitude 10° 16:08:28 10° 163° (SSE) 2,465 4.8 -5.0°
Maximum altitude 16:13:15 29° 105° (ESE) 1,502 3.1 -5.6°
Drops below altitude 10° 16:18:04 10° 47° (NE) 2,472 4.0 -6.3°
Enters shadow 16:19:20 - 41° (NE) 2,899 4.4 -6.5°
